Beloit, KS

8:17 AM CST on January 31, 2015 (GMT -0600)
Kansas | Change Station
CLOSE
Current Station
Personal Weather Station
Location: Beloit, KS
Elevation: 1404 ft
Nearby Weather Stations

Elev 1404 ft 39.46 °N, 98.10 °W | Updated 6 seconds ago

Snow
Snow
32.1 °F
Feels Like 32 °F
N
2.1
Wind Variable Wind from ESE
Gusts 7.0 mph

Today
High -- | Low -- °F
--% Chance of Precip.
Yesterday
High -- | Low -- °F
Precip. -- in
7:40 AM 5:51 PM
Waxing Gibbous, 90% visible
Pressure 30.16 in
Visibility 1.5 miles
Clouds Few 500 ft
Overcast 2200 ft
Windchill 32 °F
Dew Point 32 °F
Humidity 98%
Rainfall 0.11 in
Snow Depth Not available.
UV 0 out of 12
Pollen .10 out of 12
Air Quality Not available.
Flu Activity Not available.
METAR KCNK 311355Z AUTO 13009KT 1 1/2SM -SN BR FEW005 OVC022 00/00 A3012 RMK AO2 SLP211 P0003 T00000000

More Conditions Fewer Conditions

Pressure 30.16 in
Visibility 1.5 miles
Clouds Few 500 ft
Overcast 2200 ft
Windchill 32 °F
Dew Point 32 °F
Humidity 98%
Rainfall 0.11 in
Snow Depth Not available.
UV 0 out of 12
Pollen .10 out of 12
Air Quality Not available.
Flu Activity Not available.
METAR KCNK 311355Z AUTO 13009KT 1 1/2SM -SN BR FEW005 OVC022 00/00 A3012 RMK AO2 SLP211 P0003 T00000000

More Conditions Fewer Conditions

10-Day Weather Forecast

Almanac

Astronomy

Jan. 31, 2015 Rise Set
Actual Time
Civil Twilight
Nautical Twilight
Astronomical Twilight
Moon
Length of Visible Light
Length of Day
Tomorrow will be .
, % of the Moon is Illuminated

Today's Extremes

State Highs State Lows

Community

WunderPhotos

Upload Photos

1,792,058 photos uploaded!

WunderBlogs® & News

Nearby

Air Quality

  Air Quality AQ Index Pollutant
Not available.

Snow Depth

Station Depth Elevation

Earthquake Activity

City Distance Mag. Time & Date
Minimum magnitude displayed is 2.5.

Coastal Water Temperatures

Place Temperature

Nearby Weather Stations